sat.trackr.live / text

‹ back to catalog

STARLINK-5534

NORAD 56477 · 2023-064AF

PAYLOAD ACTIVE UNKNOWN

§ Identity

Operator
Country
US
Launch date
2023-05-10
Launch site
AFWTR
Launch vehicle
Mass (kg)
RCS (m²)

Purposes: comms

External: N2YO · Heavens-Above · Gunter

§ Orbital elements

Epoch: 2026-09-20T21:41:06.230976Z

Period
95.87 min
Inclination
69.9981°
Eccentricity
0.0003185
Mean motion
15.02031958 rev/d
Perigee alt
558.4 km
Apogee alt
562.8 km
Semi-major
6,938.8 km
B*
8.8860e-3
RAAN
352.1256°
Arg perigee
259.6720°
Mean anomaly
100.4082°
Rev number
18,498

§ Raw data

STARLINK-55341 56477U 23064AF  26263.90354434  .00118674  00000+0  88860-2 0  99932 56477  69.9981 352.1256 0003185 259.6720 100.4082 15.02031958184984

JSON: /api/v1/satellites/56477 · /tle

For live sub-satellite position, see the globe view (requires WebGL).

§ Visibility from observer

Set your observer location to see the next 7 days of passes ≥ 10°. The values pass through the URL so the page stays shareable.

No JS? Fill the form by hand. The geolocation button needs JavaScript.